Weather History for Port Isabel, TX

Change the Weather History Date:

Friday, March 23, 2012

  Actual Average Record
Temperature  
Mean Temperature 74 °F -  
Max Temperature 82 °F - - ()
Min Temperature 66 °F - - ()
Cooling Degree Days 9    
Growing Degree Days 24 (Base 50)    
Moisture  
Dew Point 67 °F    
Average Humidity 80    
Maximum Humidity 93    
Minimum Humidity 62    
Precipitation  
Precipitation 0.00 in - - ()
Sea Level Pressure  
Sea Level Pressure 29.95 in    
Wind  
Wind Speed 9 mph (ESE)    
Max Wind Speed 17 mph    
Max Gust Speed -    
Visibility 8 miles    
Events      
T = Trace of Precipitation, MM = Missing Value Source: NWS Daily Summary

Daily Weather History Graph

Daily Weather History Graph

Search for Another Location

Airport:

Trip Planner

Search our weather history database for the weather conditions in past years. The results will help you decide how hot, cold, wet, or windy it might be!

Date:

Astronomy

Mar. 23, 2012 Rise Set
Actual Time 7:29 AM CDT 7:42 PM CDT
Civil Twilight 7:06 AM CDT 8:05 PM CDT
Nautical Twilight 6:39 AM CDT 8:32 PM CDT
Astronomical Twilight 6:12 AM CDT 8:59 PM CDT
Moon 7:49 AM CDT (3/23) 8:51 PM CDT (3/23)
Length of Visible Light 12h 58m
Length of Day
12h 12m
New Moon, 1% of the Moon is Illuminated
Mar 23
New Moon
Mar 30
First Quarter
Apr 6
Full
Apr 13
Last Quarter
Apr 21
New

Hourly Weather History & Observations

Time (CDT) Temp. Heat Index Dew Point Humidity Pressure Visibility Wind Dir Wind Speed Gust Speed Precip Events Conditions
12:53 AM 66.9 °F - 62.1 °F 84% 29.96 in 10.0 mi East 8.1 mph - N/A   Clear
1:53 AM 66.9 °F - 63.0 °F 87% 29.96 in 10.0 mi East 6.9 mph - N/A   Clear
2:53 AM 68.0 °F - 64.0 °F 87% 29.95 in 9.0 mi East 6.9 mph - N/A   Clear
3:53 AM 66.9 °F - 63.0 °F 87% 29.94 in 10.0 mi East 5.8 mph - N/A   Clear
4:53 AM 66.9 °F - 63.0 °F 87% 29.94 in 9.0 mi ESE 5.8 mph - N/A   Clear
5:53 AM 66.0 °F - 64.0 °F 93% 29.94 in 9.0 mi ESE 5.8 mph - N/A   Partly Cloudy
6:53 AM 66.0 °F - 64.0 °F 93% 29.94 in 8.0 mi ESE 5.8 mph - N/A   Clear
7:53 AM 66.9 °F - 64.9 °F 93% 29.96 in 6.0 mi SE 6.9 mph - N/A   Clear
9:53 AM 75.0 °F - 68.0 °F 79% 30.00 in 8.0 mi SE 6.9 mph - N/A   Clear
10:53 AM 78.1 °F - 66.9 °F 68% 30.01 in 8.0 mi SSE 6.9 mph - N/A   Clear
11:53 AM 79.0 °F - 68.0 °F 69% 30.00 in 8.0 mi East 13.8 mph - N/A   Clear
12:53 PM 80.1 °F 82.7 °F 68.0 °F 67% 29.99 in 8.0 mi East 13.8 mph - N/A   Clear
1:53 PM 82.0 °F 84.9 °F 68.0 °F 62% 29.96 in 8.0 mi ESE 12.7 mph - N/A   Clear
2:53 PM 82.0 °F 84.9 °F 68.0 °F 62% 29.95 in 8.0 mi East 15.0 mph - N/A   Clear
3:53 PM 82.0 °F 84.9 °F 68.0 °F 62% 29.92 in 8.0 mi ESE 17.3 mph - N/A   Clear
4:53 PM 81.0 °F 83.8 °F 68.0 °F 65% 29.92 in 8.0 mi East 16.1 mph - N/A   Clear
5:53 PM 79.0 °F - 68.0 °F 69% 29.92 in 8.0 mi ESE 15.0 mph - N/A   Clear
6:53 PM 77.0 °F - 69.1 °F 76% 29.92 in 8.0 mi ESE 13.8 mph - N/A   Clear
7:53 PM 73.9 °F - 68.0 °F 82% 29.92 in 8.0 mi ESE 8.1 mph - N/A   Clear
8:53 PM 73.0 °F - 69.1 °F 87% 29.94 in 8.0 mi ESE 5.8 mph - N/A   Clear
9:53 PM 73.0 °F - 70.0 °F 90% 29.96 in 7.0 mi ESE 8.1 mph - N/A   Partly Cloudy
10:53 PM 73.0 °F - 70.0 °F 90% 29.96 in 7.0 mi SE 9.2 mph - N/A   Scattered Clouds
11:06 PM 73.4 °F - 69.8 °F 88% 29.96 in 6.0 mi SE 9.2 mph - N/A   Mostly Cloudy
11:53 PM 73.0 °F - 70.0 °F 90% 29.97 in 6.0 mi SSE 10.4 mph - N/A   Overcast